Location: St. Louis
(38.6270°N, 90.1994°W)
Time: 19:36:34
(UTC-06:00)

Vanguard 1 - Pass Details

Date: 30 November 2021
Orbit: 652 x 3830 km, 34.2° (Epoch: 21 January)

Event Time Altitude Azimuth Distance (km) Brightness Sun altitude
Exits shadow 04:48:46 31° 268° (W) 4,735 12.9 -24.9°
Maximum altitude 05:00:14 70° 196° (SSW) 2,778 12.2 -22.7°
Drops below altitude 10° 05:12:01 10° 116° (ESE) 4,093 14.3 -20.4°
Sets 05:14:34 0° 113° (ESE) 4,769 15.1 -20.0°
